Location: Passo di Treia
(43.2833°N, 13.3333°E)
Time: 20:42:59
(UTC+00:00)

STARLINK-60 - Pass Details

Date: 09 December 2019
Orbit: 412 x 419 km, 53.0° (Epoch: 18 January)

Event Time Altitude Azimuth Distance (km) Brightness Sun altitude
Rises 16:48:47 0° 227° (SW) 2,374 8.2 -13.7°
Reaches altitude 10° 16:50:53 10° 225° (SW) 1,510 6.9 -14.0°
Maximum altitude 16:54:15 69° 141° (SE) 456 3.1 -14.6°
Enters shadow 16:55:40 32° 66° (ENE) 756 3.8 -14.9°
